Wind_Speed
16 15 14 11 10 10 9 8 8 8 7 6 4 7 9 8 9 10 12 12 12 13 13 13 12 12 12 12 12 12 12 12 12 11 10 10 10 10 9 8 7 7 6 6
18 17 15 13 13 13 11 9 8 9 10 7 4 6 9 7 9 10 11 11 12 12 12 13 13 12 12 12 11 11 11 11 11 11 11 11 11 10 10 9 8 8 7 7
20 18 17 17 16 15 14 12 10 11 11 7 5 7 10 8 9 9 10 10 10 11 12 12 12 12 11 11 11 10 10 10 10 10 10 10 10 10 10 9 8 7 7 7
22 21 21 20 19 17 16 14 12 11 11 9 8 10 13 10 7 8 8 9 9 10 11 11 10 11 11 11 10 9 9 9 9 9 9 10 9 9 9 9 8 8 7 7
23 23 23 23 21 20 18 15 14 13 12 11 10 11 14 13 11 9 7 7 8 9 10 10 10 10 10 10 10 10 9 8 8 9 9 9 9 9 9 9 9 8 8 8
25 24 24 24 23 22 20 18 15 14 13 15 12 12 15 15 13 11 7 7 8 8 8 9 9 9 10 10 9 9 10 10 9 9 9 9 10 10 9 9 9 9 9 9
25 25 25 25 24 23 22 19 17 16 15 15 13 15 17 16 14 12 10 8 8 8 8 8 9 9 9 9 9 9 9 9 10 10 10 10 10 10 10 11 10 11 11 11
24 25 25 24 24 24 24 22 20 18 14 12 14 17 17 18 17 15 13 11 10 9 9 9 9 9 9 9 9 9 9 9 9 10 10 10 10 11 11 12 12 12 12 12
23 23 23 25 25 25 24 24 21 19 17 16 16 18 18 18 17 16 14 11 11 12 11 10 10 9 9 9 9 9 9 9 10 10 11 10 10 10 11 12 13 14 13 12
27 24 23 25 26 27 26 23 22 22 20 19 18 18 18 18 17 17 16 13 12 12 12 12 12 11 10 9 10 10 9 9 10 10 11 12 11 11 12 13 13 13 13 13
29 27 25 24 26 26 26 26 25 22 22 20 18 17 17 19 18 17 16 15 15 14 13 14 13 12 11 11 10 11 10 10 10 11 11 12 12 12 13 13 13 13 13 13
30 29 26 25 26 25 25 26 26 26 26 23 20 20 19 19 19 18 18 17 17 15 14 14 14 14 13 11 11 11 11 11 12 12 12 13 13 13 13 13 13 14 14 14
31 31 29 26 26 26 27 27 27 27 26 25 22 22 21 20 19 19 20 20 19 18 17 16 16 15 14 13 13 12 13 13 13 12 13 13 14 14 14 14 14 14 15 15
32 34 32 28 25 25 26 26 27 27 27 25 24 23 22 21 21 22 21 20 21 20 20 18 17 16 16 15 14 14 14 14 14 14 14 14 15 15 15 15 15 15 16 16
33 33 34 31 29 27 26 26 26 28 29 27 24 23 23 23 23 24 23 23 22 21 21 20 18 17 17 16 16 16 16 16 16 16 16 16 16 17 16 16 16 16 16 17
33 34 34 33 30 30 29 28 27 28 28 28 25 25 25 26 26 25 24 23 22 22 21 20 19 19 18 17 17 18 18 17 17 17 17 17 18 18 19 18 18 19 19 19
33 33 34 33 30 29 32 30 30 29 27 27 26 28 29 29 30 28 24 23 23 22 22 21 21 21 20 20 20 19 19 19 19 19 19 19 20 20 20 20 21 21 21 21
34 34 34 33 32 33 32 30 29 30 30 30 30 31 32 31 31 29 27 26 26 23 23 22 22 22 21 21 22 21 21 21 21 22 22 22 21 22 22 22 22 22 23 22
35 35 34 33 34 34 32 32 31 31 32 31 32 32 31 31 31 30 29 28 27 26 24 23 23 23 23 23 23 23 23 23 23 23 23 23 23 23 23 23 23 24 23 23
35 36 36 35 34 34 33 31 30 31 32 33 33 32 31 32 31 30 29 28 27 27 26 25 25 24 24 24 24 24 24 24 23 23 24 24 24 24 24 25 25 25 25 24
34 35 36 35 35 33 30 31 30 33 34 33 33 33 31 32 32 31 31 29 28 27 27 26 25 25 24 25 25 25 24 24 24 24 24 25 25 25 25 25 25 26 26 25
33 35 36 34 34 33 33 31 31 33 33 33 33 33 33 33 33 32 31 31 29 28 28 27 26 25 25 25 26 25 25 25 25 25 25 25 25 25 25 26 26 26 25 25
33 34 34 35 35 35 34 34 35 33 34 33 34 34 34 34 34 33 32 30 29 28 27 28 28 27 27 27 26 26 26 26 26 26 26 26 26 26 26 26 26 26 25 25
34 35 34 35 35 36 35 36 35 35 35 35 34 33 34 34 34 33 32 31 29 28 28 28 29 29 28 27 27 26 27 27 27 26 26 26 27 27 27 27 26 26 26 26
34 34 35 36 34 34 35 37 36 36 35 34 34 34 35 35 34 34 34 32 31 30 30 30 30 30 29 28 28 28 28 28 28 27 28 28 28 28 28 28 28 27 26 26
33 33 35 37 36 35 34 35 34 34 34 34 35 36 36 36 35 34 33 33 33 33 32 31 30 30 30 29 29 29 29 28 28 28 29 29 29 29 29 29 28 27 27 27
Wind_Direction
215 215 213 211 217 220 224 240 239 244 258 272 289 310 326 359 4 6 12 17 21 25 28 29 31 35 35 36 38 41 43 45 44 42 43 45 47 46 45 46 47 49 46 40
219 221 217 211 218 222 222 238 248 262 270 268 270 299 306 333 350 356 2 7 14 19 22 23 24 27 32 33 34 37 39 41 43 42 43 43 42 40 40 41 39 39 35 28
220 223 224 218 217 221 220 224 234 253 269 271 269 278 288 316 331 340 349 357 7 12 16 19 20 20 23 25 27 31 34 35 36 36 36 36 33 29 26 26 25 24 20 14
222 221 224 222 218 220 223 225 232 245 255 267 264 269 279 292 296 314 333 347 357 6 8 11 15 15 16 15 14 19 24 27 28 25 23 23 21 20 19 18 13 6 0 357
223 223 224 226 222 223 223 225 231 239 249 253 256 260 271 277 279 291 309 329 337 352 358 3 8 10 11 10 13 16 16 15 15 15 14 13 12 8 7 6 3 357 351 347
224 225 227 227 225 224 223 226 231 234 241 247 252 261 266 270 283 293 301 314 322 332 345 353 357 2 3 5 10 13 14 12 8 4 2 3 1 359 357 357 356 352 347 344
226 226 229 229 227 226 222 223 232 238 240 245 249 252 263 275 280 286 295 299 307 316 323 337 345 354 358 359 2 3 5 6 5 4 358 352 352 352 352 352 348 346 342 340
227 230 232 231 227 226 224 220 224 233 238 252 252 247 256 264 269 278 280 286 296 303 308 317 328 342 348 349 348 350 353 355 355 355 353 351 352 352 351 351 350 347 344 343
221 230 234 235 229 225 223 221 221 231 236 242 248 251 255 262 267 276 278 277 284 289 291 299 304 318 332 336 337 339 341 344 346 347 347 346 344 344 346 347 348 348 345 342
216 219 223 233 232 225 222 223 225 227 232 237 244 255 258 260 270 275 275 273 273 277 281 289 294 304 314 322 325 327 330 334 338 340 340 339 335 334 336 340 341 342 343 341
220 220 220 226 233 227 223 219 220 223 229 238 246 249 258 257 258 270 274 270 268 272 278 283 287 292 302 309 315 318 320 323 327 330 332 332 331 332 332 331 332 334 335 335
220 220 223 226 235 231 226 223 220 223 226 226 238 249 254 260 259 263 263 263 266 267 270 273 280 288 293 298 301 305 311 315 316 319 324 325 325 328 330 328 326 327 329 329
221 220 222 223 232 232 227 226 222 224 229 231 237 247 253 263 261 259 260 262 261 262 267 268 274 281 288 292 296 300 306 309 311 314 318 322 322 323 325 322 319 319 321 322
223 223 221 221 226 232 232 226 225 224 227 232 235 242 246 253 258 256 256 258 262 265 265 267 271 275 280 284 289 295 300 304 308 311 314 317 319 319 319 318 316 316 317 317
223 224 222 219 219 224 227 226 225 226 227 230 233 240 249 251 256 256 259 260 261 262 262 264 267 271 275 278 282 287 292 297 301 305 307 310 314 317 315 312 311 311 312 313
223 223 223 222 222 224 224 224 224 227 228 229 229 237 244 248 252 255 258 257 258 259 260 261 265 267 270 273 277 281 286 291 293 298 301 304 307 310 310 309 314 314 312 310
222 224 224 223 223 224 225 225 224 225 227 227 228 234 238 243 248 252 256 259 258 258 258 258 262 265 267 270 272 276 282 286 289 293 295 298 302 304 307 309 311 311 311 310
225 225 225 224 224 228 229 228 227 228 232 229 230 237 241 244 248 250 253 256 258 258 256 257 259 261 264 267 270 273 279 283 287 290 293 294 297 299 302 304 305 306 307 309
228 226 226 225 227 230 229 227 228 227 229 230 234 240 243 246 249 250 253 255 257 256 255 257 259 260 262 264 267 272 277 281 286 289 291 293 296 298 299 301 302 302 303 305
228 227 227 227 228 232 232 227 228 231 233 234 236 240 241 245 247 250 250 253 255 256 256 257 259 260 261 263 266 269 274 278 282 286 288 291 294 296 297 298 301 302 302 304
228 227 228 228 229 231 232 232 227 230 235 236 238 239 241 245 248 250 251 253 254 255 257 256 257 258 260 263 264 267 270 275 279 283 286 289 292 294 296 298 301 302 303 303
228 228 229 230 230 230 231 231 229 234 236 239 240 240 242 245 247 250 251 251 253 254 254 254 255 256 258 262 264 266 268 272 276 280 284 287 290 293 295 297 300 301 301 301
227 227 227 228 231 231 230 230 232 235 237 238 239 240 243 246 248 251 252 253 255 252 251 252 253 255 257 261 263 265 268 270 274 277 281 284 288 291 293 295 297 298 298 300
226 227 226 229 232 232 232 232 233 234 238 240 241 241 243 246 248 250 251 251 252 252 253 252 253 255 258 260 263 265 267 269 273 276 278 281 285 289 291 293 294 296 297 299
227 229 228 232 234 233 233 234 236 239 240 241 241 242 244 247 248 246 247 249 250 251 253 254 254 256 259 261 262 264 267 269 271 274 277 279 282 286 289 291 293 295 297 298
225 229 230 231 233 236 235 234 237 239 242 243 242 244 246 247 248 248 248 249 250 252 253 254 253 254 256 259 262 265 266 269 271 275 277 278 280 283 287 289 291 293 295 297
Height
5909 5913 5916 5919 5922 5925 5927 5928 5928 5927 5925 5926 5925 5923 5922 5921 5921 5920 5918 5917 5915 5913 5912 5910 5908 5907 5905 5904 5903 5902 5901 5900 5899 5898 5897 5896 5895 5895 5894 5893 5892 5892 5892 5892
5907 5910 5915 5918 5921 5923 5925 5927 5927 5927 5925 5925 5925 5925 5923 5922 5922 5921 5920 5918 5917 5915 5913 5912 5910 5908 5907 5906 5905 5904 5903 5902 5901 5900 5899 5898 5897 5896 5896 5895 5894 5893 5893 5893
5904 5910 5913 5915 5918 5921 5924 5926 5927 5926 5925 5924 5925 5925 5924 5923 5922 5922 5921 5919 5918 5917 5915 5913 5912 5910 5909 5908 5906 5905 5904 5904 5903 5902 5901 5900 5899 5898 5897 5896 5896 5895 5894 5894
5901 5906 5909 5912 5915 5918 5921 5923 5925 5925 5925 5925 5926 5925 5923 5922 5922 5922 5921 5920 5919 5918 5916 5915 5913 5912 5911 5909 5908 5907 5906 5905 5904 5903 5902 5901 5900 5899 5898 5897 5896 5895 5895 5894
5897 5901 5904 5907 5911 5914 5917 5920 5921 5922 5923 5923 5923 5924 5923 5919 5919 5920 5921 5920 5919 5918 5917 5916 5914 5913 5912 5910 5909 5908 5907 5906 5905 5904 5903 5902 5901 5900 5899 5898 5897 5896 5895 5894
5893 5897 5900 5903 5907 5910 5913 5916 5917 5918 5920 5921 5922 5923 5920 5917 5919 5919 5919 5919 5919 5918 5917 5916 5915 5914 5912 5911 5910 5909 5908 5907 5906 5904 5903 5902 5901 5900 5899 5898 5897 5896 5895 5894
5887 5891 5894 5898 5902 5905 5908 5912 5914 5915 5916 5918 5921 5921 5920 5918 5918 5918 5918 5918 5918 5918 5917 5916 5915 5914 5913 5912 5910 5909 5908 5907 5906 5905 5904 5903 5901 5900 5899 5898 5897 5896 5894 5894
5883 5887 5890 5893 5897 5901 5904 5908 5911 5914 5915 5917 5917 5917 5918 5916 5916 5916 5916 5917 5917 5917 5916 5916 5915 5914 5913 5912 5911 5909 5908 5907 5906 5905 5904 5903 5901 5900 5899 5898 5896 5895 5894 5892
5879 5884 5887 5889 5892 5896 5899 5902 5908 5911 5912 5915 5915 5914 5914 5914 5913 5913 5914 5915 5916 5915 5915 5915 5913 5912 5912 5911 5910 5909 5908 5907 5906 5905 5904 5902 5901 5900 5898 5897 5896 5894 5893 5892
5873 5878 5882 5884 5886 5890 5894 5899 5903 5905 5908 5910 5912 5911 5910 5910 5911 5912 5912 5913 5914 5914 5913 5913 5912 5911 5911 5910 5909 5909 5908 5907 5906 5904 5903 5902 5900 5899 5898 5897 5895 5894 5892 5891
5868 5872 5876 5878 5880 5885 5889 5893 5897 5901 5904 5907 5909 5910 5907 5906 5907 5909 5910 5910 5911 5911 5911 5910 5910 5909 5909 5908 5908 5907 5907 5906 5905 5904 5902 5901 5900 5898 5897 5896 5895 5893 5892 5890
5861 5866 5870 5873 5876 5880 5884 5887 5892 5896 5898 5901 5904 5907 5904 5903 5903 5905 5906 5907 5907 5908 5908 5908 5907 5907 5906 5906 5906 5905 5905 5905 5903 5902 5901 5900 5898 5897 5895 5894 5893 5892 5890 5889
5854 5859 5863 5868 5873 5874 5877 5881 5886 5890 5894 5896 5899 5903 5900 5900 5900 5901 5902 5903 5903 5904 5905 5904 5904 5904 5904 5904 5904 5903 5903 5903 5901 5900 5899 5898 5896 5895 5894 5893 5891 5890 5888 5887
5847 5851 5857 5862 5866 5869 5871 5876 5880 5884 5887 5891 5893 5895 5895 5895 5896 5896 5897 5898 5899 5900 5901 5901 5902 5902 5902 5902 5902 5901 5901 5900 5899 5898 5898 5896 5895 5893 5892 5891 5889 5888 5886 5884
5839 5844 5849 5854 5859 5863 5865 5869 5874 5878 5881 5885 5889 5890 5890 5890 5890 5891 5892 5893 5894 5896 5896 5897 5898 5899 5899 5899 5899 5899 5898 5898 5897 5896 5895 5894 5892 5891 5889 5888 5887 5885 5883 5882
5832 5837 5842 5847 5851 5855 5859 5863 5867 5871 5875 5879 5883 5884 5884 5884 5884 5885 5886 5887 5888 5891 5892 5893 5894 5895 5895 5896 5896 5895 5895 5894 5894 5893 5892 5891 5889 5888 5886 5884 5883 5881 5880 5878
5826 5830 5835 5840 5845 5848 5852 5857 5860 5864 5868 5873 5876 5877 5877 5878 5878 5879 5881 5882 5884 5885 5886 5887 5889 5890 5891 5891 5891 5891 5891 5891 5890 5889 5888 5887 5886 5884 5882 5881 5879 5878 5876 5874
5819 5823 5828 5833 5838 5841 5848 5851 5854 5857 5862 5865 5867 5868 5870 5872 5873 5874 5876 5878 5879 5881 5882 5883 5884 5886 5886 5887 5887 5887 5887 5886 5885 5885 5884 5883 5881 5880 5878 5877 5875 5873 5871 5869
5812 5816 5821 5826 5829 5834 5839 5843 5846 5849 5853 5856 5858 5861 5864 5865 5867 5868 5869 5871 5873 5875 5877 5878 5879 5880 5881 5882 5882 5882 5882 5881 5881 5880 5879 5878 5877 5875 5874 5872 5871 5868 5866 5864
5805 5809 5814 5818 5822 5826 5832 5835 5838 5842 5844 5847 5850 5853 5856 5859 5861 5862 5862 5864 5867 5869 5871 5872 5873 5874 5875 5876 5876 5876 5876 5876 5876 5875 5874 5873 5872 5870 5868 5867 5865 5863 5861 5859
5798 5802 5806 5811 5814 5819 5824 5827 5830 5834 5837 5840 5843 5846 5848 5851 5853 5856 5857 5859 5861 5862 5864 5866 5867 5868 5869 5870 5870 5871 5871 5871 5871 5870 5869 5868 5867 5865 5863 5862 5859 5857 5855 5853
5791 5796 5800 5803 5808 5813 5815 5819 5822 5825 5828 5831 5835 5838 5841 5843 5845 5847 5849 5852 5854 5856 5857 5859 5860 5862 5863 5864 5864 5864 5865 5865 5865 5864 5864 5863 5861 5860 5858 5856 5854 5852 5850 5848
5783 5789 5792 5797 5801 5803 5806 5810 5812 5816 5820 5823 5826 5830 5833 5835 5837 5840 5842 5844 5847 5848 5850 5852 5853 5855 5856 5857 5857 5858 5858 5858 5859 5858 5858 5857 5856 5854 5853 5851 5849 5847 5845 5843
5775 5780 5784 5788 5791 5795 5797 5801 5804 5808 5812 5815 5819 5822 5825 5828 5830 5833 5835 5837 5840 5841 5842 5844 5846 5847 5849 5850 5851 5851 5852 5852 5852 5852 5851 5850 5849 5848 5847 5845 5843 5841 5839 5837
5767 5771 5775 5779 5783 5786 5789 5793 5796 5801 5804 5808 5811 5814 5817 5819 5822 5824 5827 5830 5832 5834 5835 5837 5839 5841 5842 5843 5844 5844 5845 5845 5845 5845 5845 5844 5843 5842 5840 5839 5837 5835 5833 5831
5759 5763 5767 5770 5774 5778 5781 5785 5789 5792 5796 5799 5802 5805 5808 5811 5813 5816 5819 5821 5823 5825 5827 5829 5830 5832 5834 5835 5836 5837 5838 5838 5838 5838 5837 5837 5836 5835 5833 5832 5830 5828 5827 5824